Regional Weather Roundup
Issued by NWS

Home | Current Version | Previous Version | Text Only | Print | Product List | Glossary Off
Versions: 1 2 3 4 5 6 7 8 9 10 11 12 13 14 15 16 17 18 19 20 21 22 23 24 25 26 27 28

000
ASUS45 KPSR 152010
RWRAZ

ARIZONA HOURLY REGIONAL WEATHER ROUNDUP
NATIONAL WEATHER SERVICE PHOENIX AZ
100 PM MST MON JAN 15 2018

NOTE: FAIR INDICATES FEW OR NO CLOUDS BELOW 12,000 FEET WITH NO
SIGNIFICANT WEATHER AND/OR OBSTRUCTIONS TO VISIBILITY.

AZZ001>003-036-152100-
NORTHWEST ARIZONA

CITY           SKY/WX    TMP DP  RH WIND       PRES   REMARKS
BULLHEAD CITY  SUNNY     68  36  30 N17G23    30.09F
KINGMAN        SUNNY     60  34  37 N7        30.16F
$$

AZZ004>008-015-016-018-152100-
NORTH CENTRAL ARIZONA

CITY           SKY/WX    TMP DP  RH WIND       PRES   REMARKS
GRAND CANYON   MOSUNNY   55  26  32 W6        30.22F
WILLIAMS       SUNNY     57  14  18 NW9       30.20F
PRESCOTT       SUNNY     59  27  29 N5        30.18F
FLAGSTAFF      MOSUNNY   55  -1  10 W8        30.21F
PAYSON         MOSUNNY   59  18  20 VRB3      30.17F
PAGE           SUNNY     47  30  51 CALM      30.21F
$$

AZZ009>014-017-152100-
NORTHEAST ARIZONA

CITY           SKY/WX    TMP DP  RH WIND       PRES   REMARKS
WINSLOW        MOSUNNY   52  22  30 NE5       30.18F
SAINT JOHNS    SUNNY     53  23  31 N3        30.17F
WINDOW ROCK    SUNNY     54  23  30 W3        30.17F
SHOW LOW       MOSUNNY   57  16  19 W6        30.20F
$$

AZZ540-542>544-546-548-152100-
GREATER PHOENIX AREA

CITY           SKY/WX    TMP DP  RH WIND       PRES   REMARKS
PHOENIX        MOSUNNY   69  31  24 CALM      30.06F
BUCKEYE        SUNNY     64  37  36 CALM      30.08F
GLENDALE       MOSUNNY   68  32  26 CALM      30.09F
LUKE AFB       SUNNY     69  32  26 CALM      30.06F
DEER VALLEY    SUNNY     69  28  21 CALM      30.06F
SCOTTSDALE     SUNNY     69  33  26 SW5       30.08F
MESA-FALCON    MOSUNNY   70  28  21 VRB5      30.08F
MESA-GATEWAY   MOSUNNY   66  28  24 W3        30.09F
CHANDLER       SUNNY     66  32  28 CALM      30.07F
$$

AZZ539-553-152100-
SOUTHWEST MARICOPA COUNTY AND PINAL COUNTY

CITY           SKY/WX    TMP DP  RH WIND       PRES   REMARKS
CASA GRANDE    NOT AVBL
GILA BEND      FAIR      67  34  30 CALM      30.06F
$$

AZZ503-504-507>509-152100-
SOUTHEAST ARIZONA

CITY           SKY/WX    TMP DP  RH WIND       PRES   REMARKS
TUCSON         SUNNY     73  21  14 VRB5      30.09F
DAVIS-MONTHAN  SUNNY     76  21  13 NW5       30.07F
RYAN FIELD     SUNNY     72  19  14 MISG      30.10F
NOGALES        SUNNY     74  20  13 MISG      30.11F
SIERRA VISTA   SUNNY     71  15  11 CALM      30.14F
DOUGLAS        MOSUNNY   67  22  18 SE8       30.13F
SAFFORD        MOSUNNY   62  21  20 VRB5      30.12F
$$

AZZ532-152100-
SOUTHWEST ARIZONA

CITY           SKY/WX    TMP DP  RH WIND       PRES   REMARKS
YUMA           NOT AVBL
$$

CAZ041-043-047-048-061-525>527-560>570-152100-
SOUTHERN CALIFORNIA

CITY           SKY/WX    TMP DP  RH WIND       PRES   REMARKS
DOWNTOWN L.A.  SUNNY     68  51  54 W8        30.10F
L.A. AIRPORT   MOSUNNY   60  54  80 W10       30.12F
SAN DIEGO      MOSUNNY   66  54  65 NW7       30.12F
BURBANK        SUNNY     72  38  29 SE5       30.10F
ONTARIO        MOSUNNY   70  32  24 SW3       30.11F
RIVERSIDE      SUNNY     72  34  24 VRB3      30.11F
PALM SPRINGS   SUNNY     76  31  19 VRB5      30.08F
IMPERIAL       SUNNY     75  33  21 VRB3      30.06F
BLYTHE         SUNNY     68  35  29 CALM      30.09F
NEEDLES        SUNNY     68  39  34 NE5       30.11F
$$

NVZ020-UTZ003-152100-
SOUTHERN NEVADA-UTAH

CITY           SKY/WX    TMP DP  RH WIND       PRES   REMARKS
LAS VEGAS      MOSUNNY   64  34  32 VRB3      30.15F
SALT LAKE CITY PTSUNNY   47  32  56 VRB5      30.29F
$$

NMZ009-TXZ055-152100-
NEW MEXICO-WEST TEXAS

CITY           SKY/WX    TMP DP  RH WIND       PRES   REMARKS
ALBUQUERQUE    PTSUNNY   51  20  29 N3        30.18F
EL PASO        PTSUNNY   59  25  27 CALM      30.13F
$$


........................KEY........................
SKY/WX - SKY CONDITION/WEATHER
TMP    - TEMPERATURE IN FAHRENHEIT
DP     - DEW POINT IN FAHRENHEIT
RH     - RELATIVE HUMIDITY IN PERCENT
WIND   - DIRECTION AND SPEED IN MILES PER HOUR (MPH)
VRB    - VARIABLE WIND DIRECTION
PRES   - MEAN SEA LEVEL PRESSURE IN INCHES OF MERCURY
         F - FALLING PRESSURE   R - RISING PRESSURE
         S - STEADY PRESSURE
VSB    - VISIBILITY IN MILES
HX     - HEAT INDEX IN FAHRENHEIT
WCI    - WIND CHILL INDEX IN FAHRENHEIT
TC     - TEMPERATURE IN CELSIUS WHICH IS ALSO KNOWN AS
         TEMPERATURE IN CENTIGRADE
AFB    - AIR FORCE BASE
         LUKE AFB IS LUKE AIR FORCE BASE
         DAVIS-MONTHAN IS DAVIS-MONTHAN AIR FORCE BASE
NAS    - NAVAL AIR STATION
         EL CENTRO NAS IS EL CENTRO NAVAL AIR STATION
N/A    - NOT AVAILABLE





USA.gov is the U.S. government's official web portal to all federal, state and local government web resources and services.